• In Hungary
  • List of Countries
  • For 7 days
  • Water Temperature
  • Satellite Maps
  • Weather Map
  • News
  • Weather Widgets
  • user-avatar
    Login

    Hourly Weather Przybedza

    Today, 16 December, Saturday

    Time Temperature Precipitation Wind Pressure Humidity
    00:00 +1°C° 0 mm 1 mps 712 mmHg 84%
    01:00 +1°C° 0 mm 1 mps 712 mmHg 84%
    02:00 +1°C° 0 mm 1 mps 711 mmHg 85%
    03:00 +1°C° 0 mm 1 mps 711 mmHg 85%
    04:00 +1°C° 0 mm 1 mps 711 mmHg 86%
    05:00 +1°C° 0 mm 1 mps 711 mmHg 86%
    06:00 +1°C° 0 mm 1 mps 711 mmHg 86%
    07:00 0°C° 0 mm 1 mps 711 mmHg 86%
    08:00 +1°C° 0 mm 1 mps 712 mmHg 84%
    09:00 -1°C° 0 mm 2 mps 712 mmHg 82%
    10:00 -1°C° 0 mm 2 mps 713 mmHg 79%
    11:00 -1°C° 0 mm 2 mps 713 mmHg 78%
    12:00 +1°C° 0 mm 2 mps 714 mmHg 76%
    13:00 +1°C° 0 mm 2 mps 714 mmHg 74%
    14:00 +1°C° 0 mm 2 mps 715 mmHg 76%
    15:00 +1°C° 0 mm 2 mps 716 mmHg 78%
    16:00 +1°C° 0 mm 1 mps 716 mmHg 81%
    17:00 +1°C° 0 mm 1 mps 717 mmHg 82%
    18:00 +1°C° 0 mm 1 mps 717 mmHg 84%
    19:00 +1°C° 0 mm 1 mps 718 mmHg 86%
    20:00 +1°C° 0 mm 1 mps 718 mmHg 86%
    21:00 0°C° 0 mm 1 mps 719 mmHg 87%
    22:00 0°C° 0 mm 1 mps 719 mmHg 88%
    23:00 0°C° 0 mm 1 mps 720 mmHg 88%

    Tomorrow, 17 December, Sunday

    Time Temperature Precipitation Wind Pressure Humidity
    00:00 0°C° 0 mm 1 mps 720 mmHg 88%
    01:00 0°C° 0 mm 1 mps 720 mmHg 89%
    02:00 -1°C° 0 mm 1 mps 720 mmHg 89%
    03:00 -1°C° 0 mm 1 mps 720 mmHg 89%
    04:00 -1°C° 0 mm 1 mps 721 mmHg 89%
    05:00 -1°C° 0 mm 1 mps 721 mmHg 88%
    06:00 -1°C° 0 mm 1 mps 721 mmHg 88%
    07:00 -1°C° 0 mm 1 mps 722 mmHg 88%
    08:00 -2°C° 0 mm 2 mps 722 mmHg 85%
    09:00 -2°C° 0 mm 2 mps 723 mmHg 82%
    10:00 -1°C° 0 mm 2 mps 723 mmHg 79%
    11:00 -1°C° 0.1 mm 2 mps 723 mmHg 78%
    12:00 +1°C° 0.1 mm 2 mps 723 mmHg 76%
    13:00 +1°C° 0.1 mm 2 mps 723 mmHg 74%
    14:00 -1°C° 0.2 mm 2 mps 723 mmHg 78%
    15:00 -1°C° 0.2 mm 2 mps 724 mmHg 82%
    16:00 0°C° 0.2 mm 1 mps 724 mmHg 86%
    17:00 0°C° 0.3 mm 1 mps 724 mmHg 88%
    18:00 0°C° 0.3 mm 1 mps 725 mmHg 89%
    19:00 0°C° 0.3 mm 1 mps 725 mmHg 91%
    20:00 -3°C° 0.4 mm 2 mps 726 mmHg 92%
    21:00 -3°C° 0.4 mm 2 mps 726 mmHg 93%
    22:00 -3°C° 0.4 mm 2 mps 727 mmHg 94%
    23:00 -3°C° 0.2 mm 2 mps 727 mmHg 93%

    Day after tomorrow, 18 December, Monday

    Time Temperature Precipitation Wind Pressure Humidity
    00:00 -3°C° 0.2 mm 2 mps 727 mmHg 92%
    01:00 -3°C° 0.2 mm 2 mps 727 mmHg 91%
    02:00 -4°C° 0 mm 2 mps 727 mmHg 92%
    03:00 -2°C° 0 mm 1 mps 727 mmHg 92%
    04:00 -2°C° 0 mm 1 mps 727 mmHg 92%
    05:00 -2°C° 0 mm 1 mps 727 mmHg 92%
    06:00 -3°C° 0 mm 1 mps 727 mmHg 92%
    07:00 -3°C° 0 mm 1 mps 727 mmHg 92%
    08:00 -2°C° 0 mm 1 mps 727 mmHg 87%
    09:00 -2°C° 0 mm 1 mps 728 mmHg 82%
    10:00 -1°C° 0 mm 1 mps 728 mmHg 77%
    11:00 0°C° 0 mm 1 mps 728 mmHg 73%
    12:00 0°C° 0 mm 1 mps 727 mmHg 68%
    13:00 +1°C° 0 mm 1 mps 727 mmHg 64%
    14:00 0°C° 0 mm 1 mps 727 mmHg 68%
    15:00 -1°C° 0 mm 1 mps 727 mmHg 72%
    16:00 -3°C° 0 mm 0 mps 727 mmHg 77%
    17:00 -3°C° 0 mm 0 mps 727 mmHg 78%
    18:00 -4°C° 0 mm 0 mps 728 mmHg 79%
    19:00 -4°C° 0 mm 0 mps 728 mmHg 81%
    20:00 -4°C° 0 mm 0 mps 729 mmHg 81%
    21:00 -4°C° 0 mm 0 mps 729 mmHg 82%
    22:00 -4°C° 0 mm 0 mps 730 mmHg 82%
    23:00 -4°C° 0 mm 0 mps 730 mmHg 82%

    19 December, Tuesday

    Time Temperature Precipitation Wind Pressure Humidity
    00:00 -5°C° 0 mm 0 mps 730 mmHg 83%
    01:00 -5°C° 0 mm 0 mps 731 mmHg 83%
    02:00 -5°C° 0 mm 0 mps 731 mmHg 83%
    03:00 -5°C° 0 mm 0 mps 731 mmHg 83%
    04:00 -5°C° 0 mm 0 mps 732 mmHg 84%
    05:00 -5°C° 0 mm 0 mps 732 mmHg 84%
    06:00 -5°C° 0 mm 0 mps 732 mmHg 84%
    07:00 -5°C° 0 mm 0 mps 733 mmHg 84%
    08:00 -4°C° 0 mm 0 mps 733 mmHg 79%
    09:00 -4°C° 0 mm 0 mps 734 mmHg 75%
    10:00 -3°C° 0 mm 0 mps 734 mmHg 71%
    11:00 -2°C° 0 mm 0 mps 734 mmHg 67%
    12:00 -1°C° 0 mm 0 mps 734 mmHg 64%
    13:00 -1°C° 0 mm 0 mps 734 mmHg 60%
    14:00 -2°C° 0 mm 0 mps 734 mmHg 66%
    15:00 -3°C° 0 mm 0 mps 734 mmHg 71%
    16:00 -4°C° 0 mm 0 mps 734 mmHg 77%
    17:00 -4°C° 0 mm 0 mps 734 mmHg 77%
    18:00 -3°C° 0 mm 1 mps 734 mmHg 78%
    19:00 -3°C° 0 mm 1 mps 734 mmHg 78%
    20:00 -3°C° 0 mm 1 mps 734 mmHg 78%
    21:00 -3°C° 0 mm 1 mps 734 mmHg 77%
    22:00 -3°C° 0 mm 1 mps 734 mmHg 77%
    23:00 -2°C° 0.1 mm 1 mps 734 mmHg 78%

    20 December, Wednesday

    Time Temperature Precipitation Wind Pressure Humidity
    00:00 -2°C° 0.1 mm 1 mps 734 mmHg 79%
    01:00 -2°C° 0.1 mm 1 mps 733 mmHg 80%
    02:00 -2°C° 0.5 mm 1 mps 733 mmHg 84%
    03:00 -2°C° 0.5 mm 1 mps 733 mmHg 88%
    04:00 -2°C° 0.5 mm 1 mps 732 mmHg 93%
    05:00 -2°C° 0.2 mm 1 mps 732 mmHg 93%
    06:00 -2°C° 0.2 mm 1 mps 732 mmHg 93%
    07:00 -2°C° 0.2 mm 1 mps 732 mmHg 93%
    08:00 -1°C° 0 mm 1 mps 733 mmHg 91%
    09:00 0°C° 0 mm 1 mps 733 mmHg 89%
    10:00 0°C° 0 mm 1 mps 733 mmHg 87%
    11:00 +1°C° 0 mm 1 mps 733 mmHg 85%
    12:00 +1°C° 0 mm 1 mps 733 mmHg 84%
    13:00 +2°C° 0 mm 1 mps 733 mmHg 83%
    14:00 +1°C° 0 mm 1 mps 733 mmHg 85%
    15:00 0°C° 0 mm 1 mps 733 mmHg 88%
    16:00 0°C° 0 mm 1 mps 733 mmHg 91%
    17:00 0°C° 0 mm 1 mps 732 mmHg 91%
    18:00 0°C° 0 mm 1 mps 732 mmHg 91%
    19:00 -3°C° 0 mm 2 mps 732 mmHg 92%
    20:00 -2°C° 0.2 mm 2 mps 732 mmHg 92%
    21:00 -2°C° 0.2 mm 2 mps 732 mmHg 91%
    22:00 -2°C° 0.2 mm 2 mps 732 mmHg 91%
    23:00 -2°C° 0.6 mm 2 mps 732 mmHg 92%

    21 December, Thursday

    Time Temperature Precipitation Wind Pressure Humidity
    00:00 -2°C° 0.6 mm 2 mps 732 mmHg 92%
    01:00 -1°C° 0.6 mm 2 mps 731 mmHg 93%
    02:00 -1°C° 0.9 mm 2 mps 731 mmHg 93%
    03:00 -1°C° 0.9 mm 2 mps 731 mmHg 94%
    04:00 -1°C° 0.9 mm 2 mps 730 mmHg 94%
    05:00 +1°C° 0.9 mm 2 mps 730 mmHg 95%
    06:00 +1°C° 0.9 mm 2 mps 730 mmHg 95%
    07:00 +2°C° 0.9 mm 2 mps 730 mmHg 96%
    08:00 +2°C° 0.2 mm 2 mps 731 mmHg 95%
    09:00 +2°C° 0.2 mm 2 mps 731 mmHg 95%
    10:00 +1°C° 0.2 mm 3 mps 731 mmHg 95%
    11:00 +2°C° 0 mm 3 mps 731 mmHg 93%
    12:00 +2°C° 0 mm 3 mps 730 mmHg 91%
    13:00 +2°C° 0 mm 3 mps 730 mmHg 90%
    14:00 +2°C° 0.1 mm 2 mps 730 mmHg 90%
    15:00 +2°C° 0.1 mm 2 mps 729 mmHg 90%
    16:00 +1°C° 0.1 mm 2 mps 729 mmHg 91%
    17:00 +1°C° 0.4 mm 3 mps 729 mmHg 91%
    18:00 +1°C° 0.4 mm 3 mps 729 mmHg 92%
    19:00 +2°C° 0.4 mm 3 mps 728 mmHg 93%
    20:00 +2°C° 0.6 mm 3 mps 728 mmHg 94%
    21:00 +2°C° 0.6 mm 3 mps 728 mmHg 94%
    22:00 +2°C° 0.6 mm 3 mps 728 mmHg 95%
    23:00 +2°C° 0.4 mm 3 mps 727 mmHg 95%
    Show more